This is the latest recevied weather packets stored in our database for station/object OK0BH-6. If no packets are shown the sender has not sent any weather packets the latest 10 day(s).
| Time | Temp. | Humidity | Pressure | Rain* | Wind** | Luminosity | Snow |
|---|---|---|---|---|---|---|---|
| 1777400365 | 11.67° C | 34% | 1020.7 hPa | - | - | - | - |
| 1777399791 | 11.67° C | 34% | 1020.7 hPa | - | - | - | - |
| 1777399216 | 12.22° C | 34% | 1020.5 hPa | - | - | - | - |
| 1777398641 | 12.78° C | 34% | 1020.4 hPa | - | - | - | - |
| 1777398066 | 12.78° C | 34% | 1020.2 hPa | - | - | - | - |
| 1777397491 | 13.33° C | 34% | 1020.2 hPa | - | - | - | - |
| 1777396916 | 13.33° C | 34% | 1020 hPa | - | - | - | - |
| 1777396341 | 13.89° C | 33% | 1019.8 hPa | - | - | - | - |
| 1777395767 | 13.89° C | 33% | 1019.8 hPa | - | - | - | - |
| 1777395192 | 13.89° C | 33% | 1019.6 hPa | - | - | - | - |
| 1777394617 | 14.44° C | 33% | 1019.7 hPa | - | - | - | - |
| 1777394042 | 14.44° C | 33% | 1019.6 hPa | - | - | - | - |
| 1777393467 | 15° C | 33% | 1019.5 hPa | - | - | - | - |
| 1777392892 | 15.56° C | 33% | 1019.7 hPa | - | - | - | - |
| 1777392317 | 15.56° C | 33% | 1019.7 hPa | - | - | - | - |
| 1777391742 | 15.56° C | 33% | 1019.8 hPa | - | - | - | - |
| 1777391167 | 16.11° C | 32% | 1019.6 hPa | - | - | - | - |
| 1777390593 | 16.67° C | 32% | 1019.8 hPa | - | - | - | - |
| 1777390018 | 16.67° C | 33% | 1019.9 hPa | - | - | - | - |
| 1777389443 | 16.67° C | 33% | 1019.9 hPa | - | - | - | - |
| 1777388868 | 16.67° C | 33% | 1019.9 hPa | - | - | - | - |
| 1777388293 | 16.67° C | 32% | 1020 hPa | - | - | - | - |
| 1777387718 | 16.67° C | 32% | 1020 hPa | - | - | - | - |
| 1777387143 | 17.22° C | 33% | 1020 hPa | - | - | - | - |
| 1777386569 | 17.22° C | 32% | 1020 hPa | - | - | - | - |
* Rain since midnight (hover to see other rain measurements)
** Current wind speed in m/s (hover to see current wind gust speed)